Location: *
(52.2090°N, 4.1550°W)
Time: 18:57:15
(UTC+00:00)

Cosmos 1655 Rocket - Pass Details

Date: 19 July 2019
Orbit: 969 x 1007 km, 82.9° (Epoch: 16 August)

Event Time Altitude Azimuth Distance (km) Brightness Sun altitude
Rises 22:39:16 0° 349° (N) 3,703 8.7 -13.6°
Reaches altitude 10° 22:41:48 10° 349° (N) 2,745 7.7 -13.8°
Maximum altitude 22:48:06 88° 264° (W) 983 4.0 -14.2°
Enters shadow 22:52:43 19° 173° (S) 2,118 5.2 -14.4°
